sat.trackr.live / text

‹ back to catalog

STARLINK-5995

NORAD 56456 · 2023-064J

PAYLOAD ACTIVE UNKNOWN

§ Identity

Operator
Country
US
Launch date
2023-05-10
Launch site
AFWTR
Launch vehicle
Mass (kg)
RCS (m²)

Purposes: comms

External: N2YO · Heavens-Above · Gunter

§ Orbital elements

Epoch: 2026-05-25T04:30:31.210272Z

Period
96.11 min
Inclination
70.0016°
Eccentricity
0.0001962
Mean motion
14.98318556 rev/d
Perigee alt
570.7 km
Apogee alt
573.5 km
Semi-major
6,950.2 km
B*
-3.8311e-5
RAAN
311.6186°
Arg perigee
271.3873°
Mean anomaly
88.7061°
Rev number
16,670

§ Raw data

STARLINK-59951 56456U 23064J   26145.18786123 -.00000550  00000+0 -38311-4 0  99962 56456  70.0016 311.6186 0001962 271.3873  88.7061 14.98318556166707

JSON: /api/v1/satellites/56456 · /tle

For live sub-satellite position, see the globe view (requires WebGL).

§ Visibility from observer

Set your observer location to see the next 7 days of passes ≥ 10°. The values pass through the URL so the page stays shareable.

No JS? Fill the form by hand. The geolocation button needs JavaScript.